Regional Weather Roundup
Issued by NWS

Home | Current Version | Previous Version | Text Only | Print | Product List | Glossary On
Versions: 1 2 3 4 5 6 7 8 9 10 11 12 13 14 15 16 17 18 19 20 21 22 23 24 25 26 27 28 29 30 31 32 33 34 35 36 37 38 39 40 41 42 43 44 45 46 47 48 49
000
ASUS46 KPQR 221610
RWROR

OREGON REGIONAL WEATHER ROUNDUP
NATIONAL WEATHER SERVICE PORTLAND OR
900 AM PDT MON SEP 22 2014

NOTE: "FAIR" INDICATES FEW OR NO CLOUDS BELOW 12,000 FEET WITH
NO SIGNIFICANT WEATHER AND/OR OBSTRUCTIONS TO VISIBILITY.

ORZ001>013-221700-
NORTHWEST OREGON


CITY           SKY/WX    TMP DP  RH WIND       PRES   REMARKS
ASTORIA        CLOUDY    62  54  74 S6        29.99R
NEWPORT        CLOUDY    61  55  82 SE5       30.05R
PORTLAND       CLOUDY    63  55  75 S5        30.01F
VANCOUVER WA   CLOUDY    63  54  72 S5        30.01S
SCAPPOOSE      CLOUDY    63  55  75 S5        30.00S
HILLSBORO      CLOUDY    62  55  77 VRB5      30.01R
AURORA         CLOUDY    62  54  74 S8        30.02S
MCMINNVILLE    CLOUDY    62  55  77 W3        30.03R
SALEM          CLOUDY    63  54  72 SW6       30.02R
CORVALLIS      CLOUDY    63  54  72 SW6       30.04R
EUGENE         PTSUNNY   62  53  72 SW5       30.03R
$$

ORZ021-028-221700-
SOUTHWEST OREGON


CITY           SKY/WX    TMP DP  RH WIND       PRES   REMARKS
NORTH BEND     CLOUDY    63  59  88 CALM      30.04R
BROOKINGS      CLOUDY    61  57  86 CALM      30.04R
ROSEBURG       CLOUDY    62  54  74 CALM      30.03R
SEXTON SUMMIT  PTSUNNY   59  41  51 S9        30.08R
MEDFORD        MOSUNNY   63  45  51 CALM      30.03R
$$

ORZ009-041-221700-
COLUMBIA GORGE


CITY           SKY/WX    TMP DP  RH WIND       PRES   REMARKS
TROUTDALE      CLOUDY    64  54  69 SE3       30.00F
THE DALLES     PTSUNNY   68  52  56 W21G29    29.93R
$$

ORZ029>031-042>050-061>064-221700-
EASTERN OREGON


CITY           SKY/WX    TMP DP  RH WIND       PRES   REMARKS
REDMOND        PTSUNNY   67  49  52 E5        30.02R
BEND           PTSUNNY   68  50  52 SW9       30.05R
KLAMATH FALLS  MOSUNNY   59  45  59 CALM      30.12R
LAKEVIEW       SUNNY     59  46  63 CALM      30.17R
HERMISTON      PTSUNNY   76  52  43 SW14G21   29.90R
PENDLETON      MOSUNNY   69  45  41 SE3       29.94R
JOHN DAY       PTSUNNY   67  46  45 E8        30.05S
MEACHAM        PTSUNNY   62  51  67 CALM      30.04R
LA GRANDE      CLOUDY    72  46  40 S20       30.01R
BAKER CITY     CLOUDY    62  53  72 SW5       30.07R
BURNS          NOT AVBL
ROME             N/A     66  48  52 SE3       30.10R
ONTARIO        PTSUNNY   68  57  68 CALM      30.06R
$$



USA.gov is the U.S. government's official web portal to all federal, state and local government web resources and services.